ATLAS 5 CENTAUR DEB, 44894

Orbit data source: Space-Track

ATLAS 5 CENTAUR DEB, 44894 is space debris in HEO originally from a launch on Wed, 17 Sep 2014 UTC launched from the Air Force Eastern Test Range (AFETR). Debris objects in space refer to the collection of defunct objects orbiting the Earth. Examples of debris include non-operational satellites, rocket bodies, and fragments generated from explosions, collisions, or faulty payload assembly.

Loading next visibility...
Identifier
44894, 2014-055CK
Orbit
HEO
Country
Flag of USUS
Related business
Flag of USUnited Launch Alliance/Lockheed Martin (US)
Manufacturer
Unknown
Mission
Spacecraft
Bus & Motor
Unknown
Mass
Unknown
Launch date (UTC)
2014-09-17 (12 years ago)
Launch vehicle
Unknown
Launch site
Air Force Eastern Test Range (AFETR)
Object type
Payload
Rocket body
Debris
Shape & HBR
Unknown shape, 1.1 m
Radar Cross Section
Medium (>0.1 m² and <1 m²)

Expand to show TLE details & history
Last TLE update: 2 months ago

TLE from 2 months ago
0 ATLAS 5 CENTAUR DEB
1 44894U 14055CK  26201.22726498 -.00000278  00000-0  00000-0 0  9993
2 44894  22.5151  24.4421 5475116  27.9626 353.0421  2.03462313 49549
Epoch: 2026-07-20T05:27Z
TLE epoch observation values (Epoch: 2026-07-20T05:27:15.694Z)
Latitude
0.00003°
Longitude
4.62164°
Altitude
6,057.461 km
Speed
6.997 km/s
True Right ascension
01h 37m 48s
True Declination
0° 00' 00"
Sunlit
Object was in daylight at epoch
Visualization orbit readout
Latitude
Unknown
Longitude
Unknown
Altitude
Unknown
Speed
Unknown
Apparent Right ascension
Unknown
Apparent Declination
Unknown
Sunlit
N/A
Visualization observer readout
Local Sidereal Time
01:43:26
Azimuth
Unknown
Elevation
Unknown
Doppler factor
Unknown
Orbital elements
Apogee altitude
34,336.462 km
Perigee altitude
5,526.707 km
Semi-major axis
26,309.721 km
Eccentricity
0.54751
Inclination
22.5151°
RAAN
24.4421°
Arg. of periapsis
27.9626°
True anomaly
332.34272°
Mean anomaly
353.0421°
Eccentric anomaly
344.83647°
Mean motion
0.50859 °/min
Orbital period
707.84 mins
BSTAR
0
Loading maneuver chart data...
Computing Atmospheric mass density...

Documentation

Showing up to 5 results
|